Time,TemperatureF,DewpointF,PressureIn,WindDirection,WindDirectionDegrees,WindSpeedMPH,WindSpeedGustMPH,Humidity,HourlyPrecipIn,Conditions,Clouds,dailyrainin,SoftwareType,DateUTC
2013-09-25 00:00:00,55.0,46.0,-100.00,East,80,1.0,-999.0,70,0.00,,,-99.99,,2013-09-25 07:00:00,
2013-09-25 00:42:00,55.0,46.0,-100.00,East,80,1.0,-999.0,70,0.00,,,-99.99,,2013-09-25 07:42:00,
2013-09-25 00:53:00,55.0,46.0,-100.00,East,80,1.0,-999.0,70,0.00,,,-99.99,,2013-09-25 07:53:00,
2013-09-25 01:00:00,55.0,46.0,-100.00,NW,316,3.0,-999.0,70,0.00,,,-99.99,,2013-09-25 08:00:00,
2013-09-25 01:42:00,55.0,46.0,-100.00,NW,316,3.0,-999.0,70,0.00,,,-99.99,,2013-09-25 08:42:00,
2013-09-25 01:52:00,55.0,46.0,-100.00,NW,316,3.0,-999.0,70,0.00,,,-99.99,,2013-09-25 08:52:00,
2013-09-25 02:00:00,54.0,46.0,-100.00,North,355,1.0,-999.0,74,0.00,,,-99.99,,2013-09-25 09:00:00,
2013-09-25 02:43:00,54.0,46.0,-100.00,North,355,1.0,-999.0,74,0.00,,,-99.99,,2013-09-25 09:43:00,
2013-09-25 02:53:00,54.0,46.0,-100.00,North,355,1.0,-999.0,74,0.00,,,-99.99,,2013-09-25 09:53:00,
2013-09-25 03:00:00,54.0,46.0,-100.00,North,355,2.0,-999.0,75,0.00,,,-99.99,,2013-09-25 10:00:00,
2013-09-25 03:42:00,54.0,46.0,-100.00,North,355,2.0,-999.0,75,0.00,,,-99.99,,2013-09-25 10:42:00,
2013-09-25 03:53:00,54.0,46.0,-100.00,North,355,2.0,-999.0,75,0.00,,,-99.99,,2013-09-25 10:53:00,
2013-09-25 04:00:00,53.0,46.0,-100.00,WNW,303,2.0,-999.0,76,0.00,,,-99.99,,2013-09-25 11:00:00,
2013-09-25 04:43:00,53.0,46.0,-100.00,WNW,303,2.0,-999.0,76,0.00,,,-99.99,,2013-09-25 11:43:00,
2013-09-25 04:52:00,53.0,46.0,-100.00,WNW,303,2.0,-999.0,76,0.00,,,-99.99,,2013-09-25 11:52:00,
2013-09-25 05:00:00,52.0,45.0,-100.00,NNW,338,3.0,-999.0,78,0.00,,,-99.99,,2013-09-25 12:00:00,
2013-09-25 05:42:00,52.0,45.0,-100.00,NNW,338,3.0,-999.0,78,0.00,,,-99.99,,2013-09-25 12:42:00,
2013-09-25 05:52:00,52.0,45.0,-100.00,NNW,338,3.0,-999.0,78,0.00,,,-99.99,,2013-09-25 12:52:00,
2013-09-25 06:00:00,51.0,46.0,-100.00,North,350,2.0,-999.0,81,0.00,,,-99.99,,2013-09-25 13:00:00,
2013-09-25 06:42:00,51.0,46.0,-100.00,North,350,2.0,-999.0,81,0.00,,,-99.99,,2013-09-25 13:42:00,
2013-09-25 06:52:00,51.0,46.0,-100.00,North,350,2.0,-999.0,81,0.00,,,-99.99,,2013-09-25 13:52:00,
2013-09-25 07:00:00,49.0,45.0,-100.00,NNW,335,4.0,-999.0,85,0.00,,,-99.99,,2013-09-25 14:00:00,
2013-09-25 07:43:00,49.0,45.0,-100.00,NNW,335,4.0,-999.0,85,0.00,,,-99.99,,2013-09-25 14:43:00,
2013-09-25 07:52:00,49.0,45.0,-100.00,NNW,335,4.0,-999.0,85,0.00,,,-99.99,,2013-09-25 14:52:00,
2013-09-25 08:00:00,49.0,45.0,-100.00,North,4,2.0,-999.0,85,0.00,,,-99.99,,2013-09-25 15:00:00,
2013-09-25 08:44:00,49.0,45.0,-100.00,North,4,2.0,-999.0,85,0.00,,,-99.99,,2013-09-25 15:44:00,
2013-09-25 08:53:00,49.0,45.0,-100.00,North,4,2.0,-999.0,85,0.00,,,-99.99,,2013-09-25 15:53:00,
2013-09-25 09:00:00,54.0,43.0,-100.00,NW,323,2.0,-999.0,68,0.00,,,-99.99,,2013-09-25 16:00:00,
2013-09-25 09:43:00,54.0,43.0,-100.00,NW,323,2.0,-999.0,68,0.00,,,-99.99,,2013-09-25 16:43:00,
2013-09-25 09:53:00,54.0,43.0,-100.00,NW,323,2.0,-999.0,68,0.00,,,-99.99,,2013-09-25 16:53:00,
2013-09-25 10:00:00,56.0,43.0,-100.00,NW,323,11.0,-999.0,61,0.00,,,-99.99,,2013-09-25 17:00:00,
2013-09-25 10:43:00,56.0,43.0,-100.00,NW,323,11.0,-999.0,61,0.00,,,-99.99,,2013-09-25 17:43:00,
2013-09-25 10:52:00,56.0,43.0,-100.00,NW,323,11.0,-999.0,61,0.00,,,-99.99,,2013-09-25 17:52:00,
2013-09-25 11:00:00,60.0,41.0,-100.00,NW,323,7.0,-999.0,50,0.00,,,-99.99,,2013-09-25 18:00:00,
2013-09-25 11:42:00,60.0,41.0,-100.00,NW,323,7.0,-999.0,50,0.00,,,-99.99,,2013-09-25 18:42:00,
2013-09-25 11:52:00,60.0,41.0,-100.00,NW,323,7.0,-999.0,50,0.00,,,-99.99,,2013-09-25 18:52:00,
2013-09-25 12:00:00,62.0,40.0,-100.00,NW,314,6.0,-999.0,44,0.00,,,-99.99,,2013-09-25 19:00:00,
2013-09-25 12:42:00,62.0,40.0,-100.00,NW,314,6.0,-999.0,44,0.00,,,-99.99,,2013-09-25 19:42:00,
2013-09-25 12:52:00,62.0,40.0,-100.00,NW,314,6.0,-999.0,44,0.00,,,-99.99,,2013-09-25 19:52:00,
2013-09-25 13:00:00,62.0,37.0,-100.00,NW,321,7.0,-999.0,39,0.00,,,-99.99,,2013-09-25 20:00:00,
2013-09-25 13:43:00,62.0,37.0,-100.00,NW,321,7.0,-999.0,39,0.00,,,-99.99,,2013-09-25 20:43:00,
2013-09-25 13:52:00,62.0,37.0,-100.00,NW,321,7.0,-999.0,39,0.00,,,-99.99,,2013-09-25 20:52:00,
2013-09-25 14:00:00,64.0,36.0,-100.00,NNW,328,11.0,-999.0,36,0.00,,,-99.99,,2013-09-25 21:00:00,
2013-09-25 14:44:00,64.0,36.0,-100.00,NNW,328,11.0,-999.0,36,0.00,,,-99.99,,2013-09-25 21:44:00,
2013-09-25 14:54:00,64.0,36.0,-100.00,NNW,328,11.0,-999.0,36,0.00,,,-99.99,,2013-09-25 21:54:00,
2013-09-25 15:00:00,64.0,44.0,-100.00,NNW,330,5.0,-999.0,47,0.00,,,-99.99,,2013-09-25 22:00:00,
2013-09-25 15:42:00,64.0,44.0,-100.00,NNW,330,5.0,-999.0,47,0.00,,,-99.99,,2013-09-25 22:42:00,
2013-09-25 15:53:00,64.0,44.0,-100.00,NNW,330,5.0,-999.0,47,0.00,,,-99.99,,2013-09-25 22:53:00,
2013-09-25 16:00:00,64.0,45.0,-100.00,NNW,337,3.0,-999.0,49,0.00,,,-99.99,,2013-09-25 23:00:00,
2013-09-25 16:42:00,64.0,45.0,-100.00,NNW,337,3.0,-999.0,49,0.00,,,-99.99,,2013-09-25 23:42:00,
2013-09-25 16:53:00,64.0,45.0,-100.00,NNW,337,3.0,-999.0,49,0.00,,,-99.99,,2013-09-25 23:53:00,
2013-09-25 17:00:00,64.0,43.0,-100.00,NW,321,9.0,-999.0,47,0.00,,,-99.99,,2013-09-26 00:00:00,
2013-09-25 17:42:00,64.0,43.0,-100.00,NW,321,9.0,-999.0,47,0.00,,,-99.99,,2013-09-26 00:42:00,
2013-09-25 17:52:00,64.0,43.0,-100.00,NW,321,9.0,-999.0,47,0.00,,,-99.99,,2013-09-26 00:52:00,
2013-09-25 18:00:00,63.0,42.0,-100.00,NW,322,6.0,-999.0,46,0.00,,,-99.99,,2013-09-26 01:00:00,
2013-09-25 18:42:00,63.0,42.0,-100.00,NW,322,6.0,-999.0,46,0.00,,,-99.99,,2013-09-26 01:42:00,
2013-09-25 18:52:00,63.0,42.0,-100.00,NW,322,6.0,-999.0,46,0.00,,,-99.99,,2013-09-26 01:52:00,
2013-09-25 19:00:00,60.0,42.0,-100.00,NW,314,5.0,-999.0,52,0.00,,,-99.99,,2013-09-26 02:00:00,
2013-09-25 19:52:00,60.0,42.0,-100.00,NW,314,5.0,-999.0,52,0.00,,,-99.99,,2013-09-26 02:52:00,
2013-09-25 20:00:00,57.0,42.0,-100.00,NW,325,9.0,-999.0,56,0.00,,,-99.99,,2013-09-26 03:00:00,
2013-09-25 20:44:00,57.0,42.0,-100.00,NW,325,9.0,-999.0,56,0.00,,,-99.99,,2013-09-26 03:44:00,
2013-09-25 20:54:00,57.0,42.0,-100.00,NW,325,9.0,-999.0,56,0.00,,,-99.99,,2013-09-26 03:54:00,
2013-09-25 21:00:00,56.0,41.0,-100.00,WSW,257,1.0,-999.0,56,0.00,,,-99.99,,2013-09-26 04:00:00,
2013-09-25 21:44:00,56.0,41.0,-100.00,WSW,257,1.0,-999.0,56,0.00,,,-99.99,,2013-09-26 04:44:00,
2013-09-25 21:54:00,56.0,41.0,-100.00,WSW,257,1.0,-999.0,56,0.00,,,-99.99,,2013-09-26 04:54:00,
2013-09-25 22:00:00,55.0,41.0,-100.00,WNW,289,2.0,-999.0,58,0.00,,,-99.99,,2013-09-26 05:00:00,
2013-09-25 22:43:00,55.0,41.0,-100.00,WNW,289,2.0,-999.0,58,0.00,,,-99.99,,2013-09-26 05:43:00,
2013-09-25 22:52:00,55.0,41.0,-100.00,WNW,289,2.0,-999.0,58,0.00,,,-99.99,,2013-09-26 05:52:00,
2013-09-25 23:00:00,54.0,40.0,-100.00,NNW,345,4.0,-999.0,59,0.00,,,-99.99,,2013-09-26 06:00:00,
2013-09-25 23:42:00,54.0,40.0,-100.00,NNW,345,4.0,-999.0,59,0.00,,,-99.99,,2013-09-26 06:42:00,
2013-09-25 23:53:00,54.0,40.0,-100.00,NNW,345,4.0,-999.0,59,0.00,,,-99.99,,2013-09-26 06:53:00,